Regional Weather Roundup
Issued by NWS

Home | Current Version | Previous Version | Text Only | Print | Product List | Glossary On
Versions: 1 2 3 4 5 6 7 8 9 10 11 12 13 14 15 16 17 18 19 20 21 22 23 24 25 26 27
000
ASPQ40 PGUM 232312
RWRPQ
WEATHER ROUNDUP FOR THE MARIANAS AND MICRONESIA
NATIONAL WEATHER SERVICE TIYAN GU
900 AM CHST FRI FEB 24 2017

GUZ001>004-240000-
MARIANA ISLANDS-

CITY           SKY/WX    TMP DP  RH WIND       PRES   REMARKS
GUAM AIRPORT   MOSUNNY   82  75  78 NE15      30.01R
ANDERSEN AFB   MOSUNNY   81  73  78 E15       30.02R
ROTA AIRPORT   PTSUNNY   79  73  83 E13       30.03R
TINIAN AP      PTSUNNY   81  75  83 NE10      30.01R
SAIPAN AP      MOSUNNY   81  75  83 NE8       30.02R

$$

PMZ161-240000-
REPUBLIC OF PALAU-

CITY           SKY/WX    TMP DP  RH WIND       PRES   REMARKS
KOROR AP       PTSUNNY   82  77  83 NE5       29.90R HX  91
KOROR WSO      PTSUNNY   82  77  83 NE5       29.91R HX  91

$$

PMZ171>174-240000-
FEDERATED STATES OF MICRONESIA-

CITY           SKY/WX    TMP DP  RH WIND       PRES   REMARKS
YAP AIRPORT    PTSUNNY   81  75  83 NE10      29.93R
CHUUK AP       CLOUDY    84  82  94 NE12      29.90R HX 101
POHNPEI AP     CLOUDY    81  75  83 E17       29.90S
POHNPEI WSO    CLOUDY    82  77  83 NE14      29.96R HX  91
KOSRAE AP      CLOUDY    86  77  74 NE23      29.90R HX  97

$$

PMZ181-240000-
REPUBLIC OF THE MARSHALL ISLANDS-

CITY           SKY/WX    TMP DP  RH WIND       PRES   REMARKS
KWAJALEIN AP   SUNNY     86  73  66 E23       29.92F HX  93
MAJURO AP      PTSUNNY   84  77  79 NE24      29.89S HX  94
MAJURO WSO     PTSUNNY   86  73  66 NE20      29.88S HX  93

$$





USA.gov is the U.S. government's official web portal to all federal, state and local government web resources and services.